Location: Bishop�s Knoyle
(51.0728°N, 2.1714°W)
Time: 14:16:51
(UTC+00:00)

BEESAT 2 - Pass Details

Date: 06 December 2021
Orbit: 498 x 513 km, 64.9° (Epoch: 24 January)

Event Time Altitude Azimuth Distance (km) Brightness Sun altitude
Exits shadow 06:53:11 12° 283° (WNW) 1,596 ? -9.4°
Maximum altitude 06:55:22 19° 245° (WSW) 1,292 ? -9.1°
Drops below altitude 10° 06:58:06 10° 200° (SSW) 1,735 ? -8.7°
Sets 07:00:44 0° 182° (S) 2,613 ? -8.4°
